www.pogodaiklimat.ru

Погода и климат >> Архив погоды >> Россия >> Якутия >> Оймякон


АРХИВ ПОГОДЫ в Оймяконе

Время (UTC), дата Ветер
(напр.,м/с)
 
Видим.   Явления Облачность Т
(С)
Тd
(С)
f
(%)
Тe
(С)
Тes
(С)
Комфортность P
(гПа)
Po
(гПа)
Тmin
(С)
Tmax
(С)
R
(мм)
R24
(мм)
S
(см)
21 20.06 С 2 50 км 9/3 1000 м
[Sc Ac trans Cc]
+11.8 +6.5 70 +11 +12 по сезону 998.3 914.3 +7.2 0.3
00 21.06 СВ 4 50 км осадки на расстоянии 9/9 1000 м
[Cb calv]
+13.6 +5.0 56 +12 +13 прохладно 997.7 914.2
03 21.06 СВ 6-11
{10}
50 км осадки на расстоянии 8/5 1000 м
[Cb calv Cc]
+15.4 +2.7 42 +14 +16 прохладно 997.8 914.7
06 21.06 СВ 6
{11}
50 км осадки на расстоянии 9/8 1000 м
[Cb cap Ci fib]
+16.4 +3.6 42 +15 +16 прохладно 999.2 916.4
09 21.06 В 3
{10}
50 км осадки на расстоянии 9/9 1000 м
[Cb calv]
+14.6 +3.6 48 +14 +14 по сезону 1001.8 918.2 +16.9
12 21.06 В 2 50 км {ливн. осадки} 3/3 1000 м
[Sc diur, vesp]
+11.1 +2.9 57 +10 +10 прохладно 1004.6 919.8
15 21.06 ЮЗ 2 50 км местами туман поземный 3/3 1500 м
[Sc]
+2.2 +1.7 96 -1 -1 очень
холодно
1008.5 920.7
18 21.06 ЮЗ 1 50 км ясно +0.8 -0.0 94 -1 -1 холодно 1009.6 921.3
21 21.06 С 1 50 км 3/0
[Cc]
+8.8 +2.9 66 +8 +13 по сезону 1007.3 921.7 +0.3 0.0
00 22.06 СЗ 1 50 км 4/1 1000 м
[Cu hum Ci sp]
+14.1 +2.7 46 +15 +25 по сезону 1005.1 921.1
03 22.06 В 1 50 км 8/3 1000 м
[Cu hum Ci sp]
+16.8 +1.9 37 +18 +27 по сезону 1003.4 920.2
06 22.06 Ю 1 50 км 4/3 1000 м
[Cu hum Ci fib]
+18.9 +3.0 35 +20 +27 тепло 1001.9 919.5
09 22.06 Ю 1 50 км 3/3 1000 м
[Sc diur, vesp Ci fib]
+18.9 +1.5 31 +20 +22 тепло 1002.1 919.7 +19.9
12 22.06 З 1 50 км ясно +13.4 +4.8 56 +14 +14 по сезону 1004.5 920.4
15 22.06 Ю 1 50 км местами туман поземный ясно +3.2 +1.7 90 +2 +2 холодно 1009.5 921.9
18 22.06 З 2 50 км ясно +1.5 +0.1 90 -2 -2 холодно 1012.1 923.7
21 22.06 В 1 50 км 1/0
[Ci fib]
+12.2 +4.3 58 +12 +17 по сезону 1009.3 924.1 +1.3
00 23.06 Ю 4 50 км 3/0
[Ci fib]
+18.7 +1.5 32 +19 +25 тепло 1006.5 923.6
03 23.06 Ю 4 50 км 8/1 1000 м
[Cu hum Ci fib]
+21.4 +2.5 29 +21 +28 комфорт 1004.2 922.3
06 23.06 ЮВ 4 50 км 9/0
[Ci]
+22.2 +1.3 25 +22 +26 комфорт 1002.9 921.2
09 23.06 ЮВ 3 50 км 9/0
[Cs]
+20.4 +6.2 40 +22 +23 комфорт 1002.4 920.4 +23.1
12 23.06 Ю 3 50 км 9/0
[Cc]
+17.6 +5.1 44 +18 +18 тепло 1003.1 920.2
15 23.06 В 2 50 км слабый дождь 10/0
[Ac As Cs]
+13.2 +7.6 69 +13 +13 тепло 1004.8 920.6
18 23.06 СВ 3 50 км {дождь} 10/0
[Ac As Cs]
+11.8 +6.5 70 +10 +10 тепло 1005.3 920.7
21 23.06 СВ 2 50 км 9/0
[]
+13.7 +7.6 67 +13 +15 тепло 1005.1 921.1 0.0
00 24.06 ЮВ 3 50 км 8/3 1000 м
[Sc Ac lent Cc]
+18.3 +8.6 53 +19 +23 тепло 1003.2 920.5
03 24.06 СВ 3 50 км 10/8 1000 м
[Cb cap Ac trans Ci fib]
+18.6 +10.0 57 +19 +20 тепло 1002.7 920.3
06 24.06 СЗ 2 50 км в посл. час ливневой дождь 10/10 1000 м
[Cb cap]
+16.4 +12.0 75 +17 +17 прохладно 1003.3 920.3
09 24.06 СЗ 1 20 км слабый ливневой дождь 10/10 1000 м
[Cb cap]
+13.4 +12.1 92 +14 +14 прохладно 1005.7 921.6 +21.4 1
12 24.06 ЮВ 1 50 км {ливн. осадки} 10/10 1410 м
[Cb cap]
+12.3 +11.9 97 +12 +12 по сезону 1005.9 921.5
15 24.06 ЮВ 1 50 км {ливн. осадки} 10/10 200 м
[Cb cap]
+11.3 +10.9 97 +11 +11 по сезону 1005.8 921.2
18 24.06 З 2 50 км {ливн. осадки} 10/10 300 м
[Sc]
+11.0 +10.6 97 +10 +10 тепло 1006.0 921.2
21 24.06 СЗ 4 50 км 10/10 1300 м
[Cb cap]
+10.5 +8.6 88 +8 +8 прохладно 1007.3 922.3 +10.1 4
00 25.06 З 4 50 км осадки на расстоянии 10/10 1140 м
[Cb cap]
+9.5 +6.7 83 +7 +7 очень
холодно
1008.5 922.9 +9.1
03 25.06 СЗ 4 50 км осадки на расстоянии 10/10 600 м
[Cb cap]
+11.7 +7.6 76 +10 +10 очень
холодно
1008.7 923.8
06 25.06 ЮВ 1 50 км слабый ливневой дождь 9/9 600 м
[Cb cap]
+12.8 +8.1 73 +13 +14 холодно 1009.2 924.6
09 25.06 ЮВ 1 50 км 9/9 600 м
[Cb cap]
+13.0 +8.4 74 +13 +13 прохладно 1010.6 926.0 +13.6 0.0
12 25.06 штиль 0 50 км местами туман поземный 1/1 1000 м
[Sc]
+9.2 +7.1 87 +8 +8 холодно 1013.3 927.4
15 25.06 штиль 0 20 км туман местами 1/0
[Ci fib]
+0.4 +0.1 98 -1 -1 очень
холодно
1017.9 928.7
18 25.06 З 1 50 м туман ясно +0.1 +0.1 100 -2 -2 холодно 1018.4 929.2
21 25.06 штиль 0 50 км {туман} ясно +7.4 +4.6 82 +7 +12 прохладно 1016.9 930.0 -0.9 0.1
00 26.06 В 1 50 км {туман} 3/1 1000 м
[Cu hum Ci fib]
+14.0 +5.3 56 +15 +25 по сезону 1013.6 928.9
03 26.06 З 2 50 км 3/1 1000 м
[Cu hum Ci fib]
+17.2 +1.1 34 +18 +29 по сезону 1011.0 927.3
06 26.06 С 1 50 км 3/0
[Ci fib]
+19.8 +2.7 32 +21 +30 комфорт 1007.9 925.2
09 26.06 СВ 3 50 км 8/0
[Ci fib]
+20.1 +3.2 33 +21 +22 комфорт 1006.9 924.4 +21.8
12 26.06 ЮЗ 1 50 км 3/0
[Ci fib]
+14.5 +9.3 71 +15 +15 тепло 1008.1 924.1
15 26.06 штиль 0 50 км 3/0
[Ci fib]
+2.6 +1.6 93 +1 +1 очень
холодно
1012.3 924.4
18 26.06 З 1 50 км 3/0
[Ci fib]
+3.3 +1.5 88 +2 +2 прохладно 1012.5 924.7
21 26.06 Ю 1 50 км 3/0
[Ci fib]
+10.4 +3.6 63 +10 +14 по сезону 1010.5 925.1 +1.2
00 27.06 штиль 0 50 км 3/0
[Ci fib]
+19.9 +4.3 36 +20 +33 опасность
простуды
1006.5 924.0
03 27.06 СЗ 3 50 км 1/0
[Ci fib]
+24.7 +4.5 27 +24 +35 комфорт 1003.2 922.2
06 27.06 З 2 50 км 3/0
[Ci sp]
+26.5 +5.0 25 +26 +33 жарко 1001.0 920.6
09 27.06 З 2 50 км 1/0
[Ci fib]
+26.8 +6.4 27 +26 +28 жарко 999.9 919.7 +27.8
12 27.06 штиль 0 50 км 8/0
[Ci fib]
+17.4 +8.9 57 +17 +17 тепло 1002.6 919.7
15 27.06 Ю 1 50 км 1/0
[Ci fib]
+7.7 +5.9 88 +7 +7 по сезону 1005.6 919.8
18 27.06 З 1 50 км 1/0
[Ci fib]
+4.6 +3.1 90 +3 +3 по сезону 1007.2 920.3

 

Местоположение метеостанции Оймякон (Якутия, Россия): широта 63.25 долгота 143.10 высота над уровнем моря 740 м.

В архиве по умолчанию представлена погода в Оймяконе за последнюю неделю. Архивные данные за месяц целиком и за предыдущие месяцы, начиная с января 2011 года, Вы можете получить, выбрав интересующий диапазон дат из раскрывающегося списка и нажав кнопку "Ввод!".

Внимание! Время в таблицах - всемирное. Для получения местного времени необходимо прибавить поправку, которая в Оймяконе равна 10 ч.

Смотрите также архив погоды в соседних городах и на ближайших метеорологических станциях:

Погода в Агаякане (Якутия, Россия) (71 км)
Погода в Юртах (Якутия, Россия) (110 км)
Погода в Делянкире (Якутия, Россия) (140 км)
Погода в Усть-Нере (Якутия, Россия) (142 км)
Погода в Восточной (Якутия, Россия) (175 км)
Погода в Сусумане (Магаданская область, Россия) (258 км)
Погода в Колымской (Магаданская область, Россия) (278 км)
Погода в Уеге (Хабаровский край, Россия) (282 км)
Погода в Теплом Ключе (Якутия, Россия) (322 км)
Погода в Ягодной (Магаданская область, Россия) (340 км)

Пояснения к столбцам:

Ветер - указаны скорость ветра в м/с - средняя за 10 мин, порывы в срок и между сроками (в фигурных скобках) и направление, откуда дует ветер: С - северный, СВ - северо-восточный, В - восточный, ЮВ - юго-восточный, Ю - южный, ЮЗ - юго-западный, З - западный, СЗ - северо-западный.
Видимость - горизонтальная дальность видимости в метрах или километрах. При видимости от 1 до 10 км при отсутствии осадков обычно наблюдается дымка, при ухудшении видимости до 1 км и менее - туман. В сухую погоду видимость может ухудшаться дымом, пылью или мглою.
Явления - указаны атмосферные явления, наблюдавшиеся в срок или в последний час перед сроком; фигурными скобками обозначены явления, наблюдавшиеся между сроками (за 1-3 часа до срока); квадратными скобками обозначены град или гололедные отложения с указанием их диаметра в мм.
Облачность - указаны через наклонную черту общая и нижняя облачность в баллах и высота нижней границы облаков в метрах; квадратными скобками обозначены формы облаков: Ci - перистые, Cs - перисто-слоистые, Cc - перисто-кучевые, Ac - высококучевые, As - высокослоистые, Sc - слоисто-кучевые, Ns - слоисто-дождевые, Cu - кучевые, Cb - кучево-дождевые. Подробнее классификацию облаков см. в Атласе облаков (PDF).
T - Температура воздуха - температура, измеренная на высоте 2 м над землей.
Td - Температура точки росы - температура, при понижении до которой содержащийся в воздухе водяной пар достигнет насыщения.
f - Относительная влажность воздуха - влажноcть воздуха, измеренная на высоте 2 м над землей.
Te - Эффективная температура - температура, которую ощущает одетый по сезону человек в тени. Характеристика душности погоды. При расчете учитывается влияние влажности воздуха и скорости ветра на теплоощущения человека.
Tes - Эффективная температура на солнце - температура, которую ощущает человек, с поправкой на солнечный нагрев. Характеристика знойности погоды. Зависит от высоты солнца над горизонтом, облачности и скорости ветра. Ночью, в пасмурную погоду, а также при ветре 12 м/с и более поправка равна нулю.
P - Атмосферное давление - приведенное к уровню моря атмосферное давление.
Po - Атмосферное давление - измеренное на уровне метеостанции атмосферное давление.
Tmin - Минимальная температура - минимум температуры воздуха на высоте 2 м над землей.
Tmax - Максимальная температура - максимум температуры воздуха на высоте 2 м над землей.
R - Количество осадков - Количество выпавших осадков за период времени, мм. При наведении курсора мыши на число - период времени, за который выпало указанное количество осадков.
R24 - Количество осадков - Количество выпавших осадков за 24 часа, мм.
S - Снежный покров - Высота снежного покрова, см. При наведении курсора мыши на число - состояние снежного покрова и степень покрытия местности в баллах.